Location: Rockford
(42.2710°N, 89.0940°W)
Time: 18:39:29
(UTC-06:00)

Daily predictions for brighter satellites

Satellite Brightness Start Highest point End
(mag) Time Altitude Azimuth Time Altitude Azimuth Time Altitude Azimuth
Cosmos 44 3.6 17:54:43 10° NNW 17:58:55 38° NE 18:02:58 10° ESE
DELTA 2 R/B (1) 3.9 17:54:11 10° WSW 17:59:44 65° S 18:05:18 10° E
YAOGAN 1 4.0 17:58:17 10° S 18:02:25 45° W 18:06:36 10° NNW
Cosmos 1908 Rocket 3.9 17:58:59 10° SSW 18:03:19 72° W 18:07:44 10° N
NOSS 2-2 (C) 3.5 18:01:38 10° SSW 18:05:37 66° ESE 18:10:11 10° NE
Cosmos 1782 Rocket 3.5 18:03:56 10° S 18:08:19 75° E 18:12:47 10° NNE
Cosmos 1812 3.3 18:07:04 10° N 18:10:41 36° ENE 18:14:16 10° SE
CZ-3C R/B 4.3 18:12:02 10° SSW 18:12:36 10° SSW 18:13:08 10° SSW
Cosmos 1992 Rocket 4.0 18:07:30 10° NNW 18:12:45 71° ENE 18:17:57 10° SSE
CZ-4 R/B 4.4 18:10:05 10° SSW 18:13:22 23° W 18:16:42 10° NW
Cosmos 407 Rocket 4.2 18:10:45 10° SSE 18:15:23 33° E 18:20:06 10° NE
COSMO-SKYMED 1 2.9 18:15:28 10° N 18:19:48 72° WNW 18:24:07 10° SSW
Okean 2 Rocket 3.0 18:16:36 10° S 18:21:04 76° E 18:25:31 10° NNE
ERBS 3.1 18:17:45 10° NW 18:21:10 55° SW 18:24:33 10° SSE
ATLAS CENTAUR R/B 4.0 18:22:55 10° W 18:26:14 19° NW 18:29:25 10° N
Cosmos 2360 Rocket 3.2 18:23:59 10° N 18:28:43 26° NE 18:32:44 13° ESE
Cosmos 1980 Rocket 3.3 18:24:15 10° NW 18:29:42 49° WSW 18:35:09 10° S
FREGAT/IRIS 2.7 18:26:44 10° SSE 18:29:44 55° ENE 18:32:47 10° N
Cosmos 1745 Rocket 4.1 18:28:46 10° S 18:35:07 87° W 18:41:27 10° N
METEOR-M 4.1 18:30:09 10° SSE 18:35:30 89° ENE 18:40:53 10° NNW
Meteor 1-18 Rocket 4.2 18:32:36 10° N 18:38:11 85° E 18:43:46 10° S
Cosmos 1190 Rocket 3.9 18:33:44 10° S 18:38:51 64° ESE 18:44:00 10° NNE
Cosmos 2151 Rocket 3.7 18:34:53 10° S 18:39:15 55° E 18:43:41 10° NNE
NOAA 12 4.2 18:34:11 10° SSE 18:39:29 83° WSW 18:44:51 10° NNW
GEOS 3 Rocket 3.6 18:37:26 10° NE 18:42:41 74° SE 18:47:57 10° SSW
ALOS 2.3 18:38:16 10° SSE 18:42:49 55° ENE 18:47:24 10° N
SJ-6B 2.8 18:39:44 10° SSE 18:43:47 86° E 18:47:47 10° NNW
Cosmos 1140 Rocket 4.3 18:42:04 10° SSE 18:46:15 26° E 18:49:25 15° NE
Cosmos 1238 Rocket 3.3 18:44:31 10° NNE 18:46:37 24° NE 18:46:37 24° NE
Cosmos 2333 Rocket 4.2 18:48:32 10° NNE 18:49:37 10° NE 18:50:09 10° NE
Cosmos 1386 Rocket 4.5 18:43:41 10° S 18:49:50 87° W 18:55:56 10° N
Spot 2 Rocket 3.6 18:45:46 10° SE 18:50:39 52° ENE 18:55:34 10° N
Okean 1 Rocket 3.9 18:47:59 10° SSE 18:51:46 28° E 18:55:34 10° NNE
FengYun 1-2 T 4.1 18:46:43 10° SSE 18:52:08 68° ENE 18:57:36 10° N
Cosmos 1461 2.7 18:49:50 10° NNW 18:53:49 64° NE 18:56:31 20° SE
Cosmos 2292 Rocket 4.0 18:49:13 10° S 18:53:51 69° E 19:00:10 10° NNE
Meteor 1-19 Rocket 4.5 18:50:33 10° N 18:55:58 45° ENE 19:01:25 10° SSE
SL-16 R/B 2.3 18:54:25 10° NNW 19:00:06 78° WSW 19:05:46 10° SSE
Okean 1-7 Rocket 4.5 18:58:00 10° NNE 19:01:49 29° ENE 19:01:49 29° ENE
Helios 1A 3.5 19:02:04 32° E 19:02:57 36° ENE 19:06:47 10° N
Cosmos 1633 2.7 18:59:52 10° S 19:03:26 51° E 19:07:02 10° NNE
HJ-1C 3.4 19:01:37 10° S 19:04:59 80° WSW 19:08:23 10° NNW
Envisat 4.1 19:07:28 24° NE 19:07:28 24° NE 19:11:00 10° NNE
Cosmos 1954 Rocket 4.0 19:02:36 10° S 19:07:38 55° ESE 19:12:44 10° NNE
Meteor 1-13 Rocket 4.1 19:02:29 10° N 19:08:00 65° ENE 19:13:33 10° SSE
CENTAUR R/B 4.2 19:00:35 10° NW 19:08:01 45° WSW 19:15:49 10° S
Okean 1 3.9 19:08:59 10° NNW 19:13:00 59° W 19:16:59 10° S
Cosmos 1340 2.5 19:11:42 10° N 19:15:30 83° E 19:18:11 18° SSE
Cosmos 2322 Rocket 3.0 19:14:00 10° NNW 19:19:26 52° WSW 19:24:51 10° S
Tiangong 2 1.6 19:20:12 10° W 19:22:55 53° SW 19:22:55 53° SW
CZ-2D R/B 3.0 19:22:38 51° SSE 19:23:30 77° ENE 19:27:19 10° N
Meteor 1-23 Rocket 4.5 19:19:23 10° N 19:25:00 47° ENE 19:26:15 41° ESE
Cosmos 1536 Rocket 4.4 19:23:23 10° NNW 19:27:43 52° W 19:32:03 10° S
Cosmos 2322 3.6 19:23:00 10° NNW 19:28:44 65° ENE 19:30:39 41° SE
Cosmos 1025 Rocket 4.5 19:24:36 10° N 19:26:40 24° NNE 19:26:40 24° NNE
Resurs 01 Rocket 2.1 19:25:24 10° S 19:29:46 60° W 19:34:08 10° NNW
Helios 1B rocket 3.8 19:33:19 27° S 19:33:19 27° S 19:35:19 10° S
Cosmos 1818 3.6 19:26:24 10° SW 19:31:51 80° WNW 19:35:28 22° NNE
H-2A R/B 3.4 19:33:51 15° S 19:36:47 51° W 19:40:26 10° NNW
Cosmos 2181 Rocket 4.2 19:31:22 10° NNW 19:37:34 73° W 19:43:50 10° S
Meteor 2-4 Rocket 3.5 19:32:35 10° N 19:38:13 73° E 19:40:14 40° SSE
COSMOS 2428 3.1 19:34:00 10° NNW 19:39:00 42° NE 19:39:00 42° NE
Cosmos 2237 4.3 19:34:39 10° NNW 19:40:17 54° ENE 19:40:31 54° ENE
Cosmos 2327 Rocket 4.4 19:35:49 10° S 19:41:51 59° E 19:48:02 10° NNE
Meteor 1-11 Rocket 3.8 19:36:40 10° SSW 19:42:25 81° W 19:48:20 10° N
BREEZE-M DEB (TANK) 3.6 19:40:16 10° NW 19:43:38 68° NNE 19:44:45 54° E
DELTA 2 R/B (1) 3.7 19:40:29 10° W 19:45:59 59° SSW 19:46:45 54° SSE
Cosmos 2237 Rocket 4.0 19:49:57 10° N 19:52:07 18° NNE 19:52:07 18° NNE
SL-08 ROCKET BODY 4.3 19:49:12 10° S 19:55:21 89° ESE 20:01:36 10° N
Cosmos 1570 Rocket 4.0 19:50:15 10° NNW 19:54:50 65° NNE 19:54:50 65° NNE
Cosmos 2184 Rocket 3.9 19:52:54 10° S 19:59:14 83° E 20:05:33 10° N
Cosmos 2074 Rocket 3.9 19:54:32 10° S 20:00:46 89° E 20:07:06 10° N
BREEZE-M DEB (TANK) 3.5 20:04:56 10° WNW 20:06:55 46° W 20:06:55 46° W
Cosmos 2360 Rocket 2.9 20:07:32 10° NW 20:12:58 50° WSW 20:14:35 38° SSW
Cosmos 2208 Rocket 4.5 20:11:37 10° NNW 20:16:05 59° NW 20:16:05 59° NW
Cosmos 2219 Rocket 3.5 20:12:10 10° NNW 20:15:05 29° N 20:15:05 29° N
Cosmos 2285 Rocket 4.2 20:16:42 10° NNW 20:22:00 61° N 20:22:00 61° N
Cosmos 2333 Rocket 3.8 20:29:37 10° NNW 20:32:10 26° N 20:32:10 26° N
USA 229 DEB 4.3 20:52:33 10° NW 20:57:51 53° NW 20:57:51 53° NW
USA 229 4.3 20:52:39 10° NW 20:57:56 53° NW 20:57:56 53° NW
